#timestamp,LO_Frequency,Hit 
1501315215.6,286046966.3,N
1501315235.4,286046966.5,N
1501315255.2,286046964.6,N
1501315275.1,286046964.4,N
1501315276.0,286046964.4,N
1501315295.8,286046966.0,N
1501315315.6,286046969.2,N
1501315335.5,286046969.7,N
1501315355.3,286046971.9,N
1501315375.1,286046972.2,N
1501315395.9,286046972.6,N
1501315415.7,286046978.2,N
1501315435.5,286046979.7,N
1501315455.4,286046980.9,N
1501315475.2,286046986.2,N
1501315495.0,286046982.4,N
1501315495.9,286046982.4,N
1501315515.8,286046984.9,N
1501315535.6,286046983.9,N
1501315555.4,286046985.8,N
1501315575.2,286046985.6,N
1501315595.2,286046989.6,N
1501315615.1,286046985.5,N
1501315616.0,286046985.5,N
1501315635.8,286046988.0,N
1501315655.6,286046983.9,N
1501315675.5,286046979.8,N
1501315695.3,286046976.8,N
1501315715.1,286046972.9,N
1501315735.9,286046971.3,N
1501315755.7,286046968.8,N
1501315775.5,286046968.8,N
1501315795.3,286046969.1,N
1501315815.2,286046970.3,N
1501315835.0,286046968.1,N
1501315835.9,286046968.1,N
1501315855.7,286046972.2,N
1501315875.6,286046966.4,N
1501315895.4,286046964.9,N
1501315915.2,286046963.2,N
1501315935.1,286046960.0,N
1501315936.0,286046960.0,N
1501315955.8,286046960.1,N
1501315975.6,286046958.9,N
1501315995.5,286046955.2,N
1501316015.3,286046953.5,Y
1501316035.1,286046978.7,N
1501316055.9,286046974.5,N
1501316075.7,286046976.6,N
1501316095.5,286046980.1,N
1501316115.4,286046978.9,N
1501316135.2,286046977.7,N
1501316155.0,286046984.0,N
1501316155.9,286046984.0,N
1501316175.8,286046986.2,N
1501316195.6,286046983.8,N
1501316215.4,286046986.4,N
1501316235.3,286046984.4,N
1501316255.1,286046986.3,N
1501316256.0,286046986.3,N
1501316275.8,286046986.0,N
1501316295.6,286046988.3,N
1501316315.5,286046988.0,N
1501316335.3,286046988.2,N
1501316355.1,286046983.6,N
1501316375.9,286046983.5,N
1501316395.7,286046982.8,N
1501316415.5,286046982.4,N
1501316435.4,286046979.4,N
1501316455.2,286046980.4,N
1501316475.0,286046981.9,N
1501316475.9,286046981.9,N
1501316495.8,286046977.6,N
1501316515.6,286046975.7,N
1501316535.4,286046976.4,N
1501316555.3,286046972.6,N
1501316575.1,286046973.1,N
1501316576.0,286046973.1,N
1501316595.8,286046971.5,N
1501316615.7,286046971.3,N
1501316635.5,286046964.9,N
1501316655.3,286046959.9,N
1501316675.2,286046961.1,N
1501316695.9,286046958.8,N
1501316715.7,286046960.0,N
1501316735.5,286046960.2,N
1501316755.4,286046962.6,N
1501316775.2,286046964.4,N
1501316795.0,286046965.4,N
1501316796.0,286046965.4,N
1501316815.8,286046966.5,N
1501316835.6,286046972.4,N
1501316855.4,286046967.7,N
1501316875.3,286046969.5,N
1501316895.1,286046966.4,N
1501316915.8,286046967.1,N
1501316935.7,286046969.2,N
1501316955.5,286046966.6,N
1501316975.3,286046970.4,N
1501316995.2,286046970.8,N
1501317015.9,286046971.4,N
1501317035.7,286046974.9,N
1501317055.5,286046980.2,N
1501317075.4,286046980.6,N
1501317095.2,286046981.9,N
1501317115.0,286046979.8,N
1501317115.9,286046979.8,N
1501317135.8,286046979.0,N
1501317155.6,286046977.9,N
1501317175.4,286046980.1,N
1501317195.3,286046979.6,N
1501317215.1,286046974.4,N
1501317235.8,286046972.8,N
1501317255.7,286046973.3,N
1501317275.5,286046976.4,N
1501317295.3,286046978.2,N
1501317315.2,286046977.3,N
1501317335.9,286046977.7,N
1501317355.7,286046977.3,N
1501317375.5,286046977.6,N
1501317395.4,286046973.9,N
1501317415.2,286046968.7,N
1501317435.0,286046967.5,N
1501317435.9,286046967.5,N
1501317455.8,286046965.8,N
1501317475.6,286046965.6,N
1501317495.4,286046964.5,N
1501317515.3,286046961.3,N
1501317535.1,286046958.2,N
1501317536.0,286046958.2,N
1501317555.8,286046961.2,N
1501317575.7,286046958.2,N
1501317595.5,286046956.7,N
1501317615.3,286046957.6,N
1501317635.2,286046957.3,N
1501317655.9,286046950.6,Y
1501317675.7,286046968.4,N
1501317695.6,286046963.5,N
1501317715.4,286046959.8,N
1501317735.2,286046960.0,N
1501317755.0,286046965.7,N
1501317756.0,286046965.7,N
1501317775.8,286046965.6,N
1501317795.6,286046964.6,N
1501317815.4,286046964.8,N
1501317835.3,286046965.2,N
1501317855.1,286046967.2,N
1501317875.8,286046965.0,N
1501317895.7,286046966.0,N
1501317915.5,286046965.4,N
1501317935.3,286046968.6,N
1501317955.2,286046970.7,N
1501317975.9,286046972.0,N
1501317995.7,286046971.9,N
1501318015.6,286046975.6,N
1501318035.4,286046979.2,N
1501318055.2,286046984.3,N
1501318075.1,286046987.7,N
1501318076.0,286046987.7,N
1501318095.8,286046995.5,N
1501318115.6,286046999.1,N
1501318135.5,286046997.1,N
1501318155.3,286046999.4,N
1501318175.1,286047002.4,N
1501318195.9,286047001.5,N
1501318215.7,286047002.6,N
1501318235.5,286047003.7,N
1501318255.3,286047001.6,N
1501318275.2,286047003.9,N
1501318295.0,286047001.3,N
1501318295.9,286047001.3,N
1501318315.7,286047003.3,N
1501318335.6,286047001.8,N
1501318355.4,286047002.2,N
1501318375.2,286047002.9,N
1501318395.1,286047005.8,N
1501318396.0,286047005.8,N
1501318415.8,286047007.3,N
1501318435.6,286047008.7,N
1501318455.5,286047008.3,N
1501318475.3,286047010.1,N
1501318495.1,286047010.4,N
1501318515.9,286047008.0,N
1501318535.7,286047008.4,N
1501318555.5,286047012.1,N
1501318575.4,286047006.7,N
1501318595.2,286047005.9,N
1501318615.0,286047001.5,N
1501318615.9,286047001.5,N
1501318635.7,286047000.3,N
1501318655.6,286047000.3,N
1501318675.4,286046999.9,N
1501318695.2,286046999.7,N
1501318715.1,286047001.0,N
1501318716.0,286047001.0,N
1501318735.8,286046999.1,N
1501318755.6,286046998.4,N
1501318775.5,286046999.1,N
1501318795.3,286046996.5,N
